Location: Recife
(8.0585°S, 34.8848°W)
Time: 20:21:15
(UTC-03:00)

S-56A Canister/Altair - Pass Details

Date: 23 April 2026
Orbit: 633 x 2484 km, 38.9° (Epoch: 16 May)

Event Time Altitude Azimuth Distance (km) Brightness Sun altitude
Rises 08:23:04 0° 340° (NNW) 6,039 12.1 41.9°
Reaches altitude 10° 08:28:32 10° 354° (N) 5,118 12.0 43.1°
Maximum altitude 08:38:52 22° 38° (NE) 4,122 12.4 45.4°
Drops below altitude 10° 08:48:19 10° 82° (E) 4,703 12.4 47.5°
Sets 08:52:54 0° 96° (E) 5,449 12.4 48.5°
